Estación de Las Viñas
Ultimos registro cada 15 minutos 56
| N° | Estación | Fecha / Hora | Temperatura | Humedad | Lluvia | Velocidad | Dirección | Radiación | Presion |
| 56 | Las Viñas | 06-09-2026 13:45 | 20,2 | 30 | 0 | 0,4 | 192 | 754 | 1013,4 |
| 55 | Las Viñas | 06-09-2026 13:30 | 19,8 | 32 | 0 | 0,4 | 147 | 766 | 1013,6 |
| 54 | Las Viñas | 06-09-2026 13:15 | 19,9 | 38 | 0 | 2,7 | 156 | 777 | 1013,9 |
| 53 | Las Viñas | 06-09-2026 13:00 | 19,5 | 40 | 0 | 0,9 | 175 | 485 | 1014,2 |
| 52 | Las Viñas | 06-09-2026 12:45 | 18,8 | 42 | 0 | 0 | 158 | 788 | 1014,5 |
| 51 | Las Viñas | 06-09-2026 12:30 | 18,3 | 42 | 0 | 0,9 | 159 | 671 | 1014,6 |
| 50 | Las Viñas | 06-09-2026 12:15 | 17,8 | 43 | 0 | 0,9 | 141 | 780 | 1014,9 |
| 49 | Las Viñas | 06-09-2026 12:00 | 17,1 | 45 | 0 | 0 | 201 | 770 | 1015 |
| 48 | Las Viñas | 06-09-2026 11:45 | 16,6 | 44 | 0 | 0 | 224 | 758 | 1015,3 |
| 47 | Las Viñas | 06-09-2026 11:30 | 15,9 | 43 | 0 | 0,9 | 175 | 740 | 1015 |
| 46 | Las Viñas | 06-09-2026 11:15 | 15,4 | 44 | 0 | 0,9 | 224 | 661 | 1015,3 |
| 45 | Las Viñas | 06-09-2026 11:00 | 14,7 | 43 | 0 | 0,4 | 185 | 689 | 1015,3 |
| 44 | Las Viñas | 06-09-2026 10:45 | 14 | 47 | 0 | 0 | 194 | 670 | 1015,5 |
| 43 | Las Viñas | 06-09-2026 10:30 | 13,2 | 49 | 0 | 0,9 | 241 | 635 | 1015,6 |
| 42 | Las Viñas | 06-09-2026 10:15 | 12,2 | 49 | 0 | 0,4 | 220 | 580 | 1015,6 |
| 41 | Las Viñas | 06-09-2026 10:00 | 11,3 | 51 | 0 | 0,4 | 191 | 294 | 1015,7 |
| 40 | Las Viñas | 06-09-2026 09:45 | 10,6 | 52 | 0 | 0 | 185 | 513 | 1016 |
| 39 | Las Viñas | 06-09-2026 09:30 | 9,7 | 54 | 0 | 0,4 | 175 | 432 | 1016 |
| 38 | Las Viñas | 06-09-2026 09:15 | 8,7 | 58 | 0 | 0,4 | 145 | 378 | 1016,1 |
| 37 | Las Viñas | 06-09-2026 09:00 | 7,4 | 60 | 0 | 0,4 | 208 | 371 | 1016,1 |
| 36 | Las Viñas | 06-09-2026 08:45 | 6,3 | 62 | 0 | 0,4 | 144 | 33 | 1016,2 |
| 35 | Las Viñas | 06-09-2026 08:30 | 5,3 | 64 | 0 | 0 | 175 | 132 | 1016,2 |
| 34 | Las Viñas | 06-09-2026 08:15 | 4,1 | 67 | 0 | 0,4 | 169 | 142 | 1016,1 |
| 33 | Las Viñas | 06-09-2026 08:00 | 2,9 | 70 | 0 | 0,4 | 154 | 70 | 1016,2 |
| 32 | Las Viñas | 06-09-2026 07:45 | 2,3 | 72 | 0 | 0 | 195 | 26 | 1016 |
| 31 | Las Viñas | 06-09-2026 07:30 | 1,9 | 72 | 0 | 0 | 197 | 18 | 1015,8 |
| 30 | Las Viñas | 06-09-2026 07:15 | 1,8 | 71 | 0 | 0 | 168 | 11 | 1015,7 |
| 29 | Las Viñas | 06-09-2026 07:00 | 1,9 | 70 | 0 | 0 | 180 | 5 | 1015,8 |
| 28 | Las Viñas | 06-09-2026 06:45 | 2,2 | 69 | 0 | 0 | 180 | 0 | 1016 |
| 27 | Las Viñas | 06-09-2026 06:30 | 2,4 | 68 | 0 | 0 | 180 | 0 | 1015,9 |
| 26 | Las Viñas | 06-09-2026 06:15 | 2,6 | 66 | 0 | 0,4 | 166 | 0 | 1016 |
| 25 | Las Viñas | 06-09-2026 06:00 | 2,6 | 66 | 0 | 0,4 | 155 | 0 | 1016,2 |
| 24 | Las Viñas | 06-09-2026 05:45 | 2,7 | 66 | 0 | 0 | 200 | 0 | 1016,2 |
| 23 | Las Viñas | 06-09-2026 05:30 | 2,9 | 65 | 0 | 0 | 203 | 0 | 1016,4 |
| 22 | Las Viñas | 06-09-2026 05:15 | 3 | 65 | 0 | 0 | 202 | 0 | 1016,4 |
| 21 | Las Viñas | 06-09-2026 05:00 | 2,8 | 66 | 0 | 0 | 164 | 0 | 1016,5 |
| 20 | Las Viñas | 06-09-2026 04:45 | 2,9 | 66 | 0 | 0 | 201 | 0 | 1016,6 |
| 19 | Las Viñas | 06-09-2026 04:30 | 2,8 | 66 | 0 | 0,4 | 193 | 0 | 1016,6 |
| 18 | Las Viñas | 06-09-2026 04:15 | 2,8 | 66 | 0 | 0 | 193 | 0 | 1016,8 |
| 17 | Las Viñas | 06-09-2026 04:00 | 2,9 | 66 | 0 | 0,4 | 193 | 0 | 1016,9 |
| 16 | Las Viñas | 06-09-2026 03:45 | 2,9 | 66 | 0 | 0,4 | 190 | 0 | 1017 |
| 15 | Las Viñas | 06-09-2026 03:30 | 3,1 | 66 | 0 | 0 | 158 | 0 | 1017,2 |
| 14 | Las Viñas | 06-09-2026 03:15 | 3,3 | 65 | 0 | 0 | 175 | 0 | 1017,2 |
| 13 | Las Viñas | 06-09-2026 03:00 | 3,4 | 65 | 0 | 0 | 175 | 0 | 1017,5 |
| 12 | Las Viñas | 06-09-2026 02:45 | 3,7 | 64 | 0 | 0 | 189 | 0 | 1017,7 |
| 11 | Las Viñas | 06-09-2026 02:30 | 3,7 | 64 | 0 | 0 | 175 | 0 | 1018 |
| 10 | Las Viñas | 06-09-2026 02:15 | 3,7 | 64 | 0 | 0 | 141 | 0 | 1018,1 |
| 9 | Las Viñas | 06-09-2026 02:00 | 3,8 | 63 | 0 | 0 | 153 | 0 | 1018,2 |
| 8 | Las Viñas | 06-09-2026 01:45 | 3,7 | 64 | 0 | 0 | 168 | 0 | 1018,5 |
| 7 | Las Viñas | 06-09-2026 01:30 | 3,8 | 64 | 0 | 0 | 168 | 0 | 1018,5 |
| 6 | Las Viñas | 06-09-2026 01:15 | 3,8 | 64 | 0 | 0 | 180 | 0 | 1018,7 |
| 5 | Las Viñas | 06-09-2026 01:00 | 3,9 | 64 | 0 | 0 | 175 | 0 | 1019 |
| 4 | Las Viñas | 06-09-2026 00:45 | 4,3 | 62 | 0 | 0 | 167 | 0 | 1019,1 |
| 3 | Las Viñas | 06-09-2026 00:30 | 4,7 | 61 | 0 | 0 | 167 | 0 | 1019,2 |
| 2 | Las Viñas | 06-09-2026 00:15 | 5,2 | 58 | 0 | 0 | 164 | 0 | 1019,3 |
| 1 | Las Viñas | 06-09-2026 00:00 | 6,1 | 55 | 0 | 0 | 164 | 0 | 1019,4 |